Weather History for Alpine, TX

Change the Weather History Date:

Saturday, October 20, 2012

  Actual Average (KMRF) Record (KMRF)
Temperature  
Mean Temperature 70 °F -  
Max Temperature 85 °F 70 °F 84 °F (2001)
Min Temperature 56 °F 42 °F 26 °F (1999)
Cooling Degree Days 6    
Growing Degree Days 20 (Base 50)    
Moisture  
Dew Point 43 °F    
Average Humidity 39    
Maximum Humidity 56    
Minimum Humidity 25    
Precipitation  
Precipitation 0.00 in - - ()
Sea Level Pressure  
Sea Level Pressure 30.03 in    
Wind  
Wind Speed 9 mph (SW)    
Max Wind Speed 18 mph    
Max Gust Speed 25 mph    
Visibility 10 miles    
Events      
Averages and records for this station are not official NWS values.
T = Trace of Precipitation, MM = Missing Value Source: NWS Daily Summary

Daily Weather History Graph

Daily Weather History Graph

Search for Another Location

Airport:

Trip Planner

Search our weather history database for the weather conditions in past years. The results will help you decide how hot, cold, wet, or windy it might be!

Date:

Astronomy

Oct. 20, 2012 Rise Set
Actual Time 8:00 AM CDT 7:17 PM CDT
Civil Twilight 7:36 AM CDT 7:42 PM CDT
Nautical Twilight 7:08 AM CDT 8:10 PM CDT
Astronomical Twilight 6:40 AM CDT 8:37 PM CDT
Moon 1:26 PM CDT (10/20) No Moon Set
Length of Visible Light 12h 05m
Length of Day
11h 17m
Waxing Crescent, 34% of the Moon is Illuminated
Oct 20
Waxing Crescent
Oct 21
First Quarter
Oct 29
Full
Nov 6
Last Quarter
Nov 13
New

Hourly Weather History & Observations

Time (CDT) Temp. Dew Point Humidity Pressure Visibility Wind Dir Wind Speed Gust Speed Precip Events Conditions
12:15 AM 60.8 °F 40.3 °F 47% 30.08 in 10.0 mi WSW 8.1 mph - N/A   Clear
12:35 AM 61.0 °F 40.5 °F 47% 30.08 in 10.0 mi WSW 9.2 mph - N/A   Clear
12:55 AM 61.0 °F 40.5 °F 47% 30.07 in 10.0 mi WSW 10.4 mph - N/A   Clear
1:15 AM 61.3 °F 40.1 °F 46% 30.07 in 10.0 mi WSW 9.2 mph - N/A   Clear
1:35 AM 61.0 °F 39.6 °F 45% 30.07 in 10.0 mi SW 8.1 mph - N/A   Clear
1:55 AM 59.0 °F 39.6 °F 49% 30.06 in 10.0 mi SW 8.1 mph - N/A   Clear
2:15 AM 59.2 °F 39.6 °F 48% 30.07 in 10.0 mi SW 6.9 mph - N/A   Clear
2:35 AM 58.8 °F 39.2 °F 48% 30.06 in 10.0 mi WSW 6.9 mph - N/A   Clear
2:55 AM 58.5 °F 39.0 °F 48% 30.06 in 10.0 mi SW 6.9 mph - N/A   Clear
3:15 AM 57.7 °F 39.0 °F 50% 30.06 in 10.0 mi SW 9.2 mph - N/A   Clear
3:35 AM 59.2 °F 38.7 °F 47% 30.05 in 10.0 mi SW 8.1 mph - N/A   Clear
3:55 AM 59.0 °F 39.0 °F 48% 30.05 in 10.0 mi SW 8.1 mph - N/A   Clear
4:15 AM 59.4 °F 39.0 °F 47% 30.04 in 10.0 mi SW 11.5 mph - N/A   Clear
4:35 AM 59.2 °F 39.2 °F 48% 30.04 in 10.0 mi SW 9.2 mph - N/A   Clear
4:55 AM 56.5 °F 39.7 °F 54% 30.04 in 10.0 mi SSW 9.2 mph - N/A   Clear
5:15 AM 57.2 °F 39.9 °F 52% 30.04 in 10.0 mi SW 9.2 mph - N/A   Clear
5:35 AM 59.7 °F 39.4 °F 47% 30.04 in 10.0 mi SW 11.5 mph - N/A   Clear
5:55 AM 60.8 °F 39.2 °F 45% 30.04 in 10.0 mi SW 10.4 mph - N/A   Clear
6:15 AM 60.3 °F 39.4 °F 46% 30.04 in 10.0 mi WSW 9.2 mph - N/A   Clear
6:35 AM 59.7 °F 39.4 °F 47% 30.04 in 10.0 mi WSW 8.1 mph - N/A   Clear
6:55 AM 59.4 °F 39.6 °F 48% 30.04 in 10.0 mi WSW 9.2 mph - N/A   Clear
7:15 AM 59.9 °F 39.9 °F 48% 30.05 in 10.0 mi SW 9.2 mph - N/A   Clear
7:35 AM 60.3 °F 40.1 °F 47% 30.05 in 10.0 mi SW 9.2 mph - N/A   Clear
7:55 AM 60.8 °F 40.3 °F 47% 30.05 in 10.0 mi SW 9.2 mph - N/A   Clear
8:15 AM 59.9 °F 40.5 °F 49% 30.06 in 10.0 mi SW 8.1 mph - N/A   Clear
8:35 AM 61.0 °F 40.8 °F 47% 30.07 in 10.0 mi SW 8.1 mph - N/A   Clear
8:55 AM 64.2 °F 41.5 °F 44% 30.07 in 10.0 mi SW 6.9 mph - N/A   Clear
9:15 AM 67.5 °F 41.5 °F 39% 30.08 in 10.0 mi WSW 6.9 mph - N/A   Clear
9:35 AM 70.7 °F 41.7 °F 35% 30.08 in 10.0 mi SW 3.5 mph - N/A   Clear
9:55 AM 73.4 °F 42.4 °F 33% 30.08 in 10.0 mi SW 6.9 mph - N/A   Clear
10:15 AM 74.8 °F 43.0 °F 32% 30.08 in 10.0 mi SW 6.9 mph - N/A   Clear
10:35 AM 74.7 °F 43.9 °F 33% 30.08 in 10.0 mi SW 9.2 mph - N/A   Clear
10:55 AM 78.4 °F 44.4 °F 30% 30.08 in 10.0 mi SW 12.7 mph - N/A   Clear
11:15 AM 80.1 °F 44.8 °F 29% 30.08 in 10.0 mi WSW 13.8 mph - N/A   Clear
11:35 AM 80.6 °F 45.5 °F 29% 30.07 in 10.0 mi SSW 10.4 mph 16.1 mph N/A   Clear
11:55 AM 80.8 °F 45.3 °F 29% 30.07 in 10.0 mi SW 10.4 mph - N/A   Clear
12:15 PM 82.4 °F 45.5 °F 27% 30.06 in 10.0 mi South 11.5 mph 16.1 mph N/A   Clear
12:35 PM 82.6 °F 45.1 °F 27% 30.06 in 10.0 mi SW 13.8 mph 19.6 mph N/A   Clear
12:55 PM 82.8 °F 44.8 °F 26% 30.05 in 10.0 mi SW 10.4 mph 21.9 mph N/A   Clear
1:15 PM 81.7 °F 45.3 °F 28% 30.05 in 10.0 mi WSW 16.1 mph 23.0 mph N/A   Clear
1:35 PM 82.8 °F 46.4 °F 28% 30.04 in 10.0 mi SSW 15.0 mph 25.3 mph N/A   Clear
1:55 PM 83.7 °F 45.9 °F 27% 30.03 in 10.0 mi SW 16.1 mph 25.3 mph N/A   Clear
2:15 PM 83.8 °F 45.7 °F 26% 30.01 in 10.0 mi SW 18.4 mph 23.0 mph N/A   Clear
2:35 PM 84.6 °F 45.5 °F 25% 30.00 in 10.0 mi SW 15.0 mph 23.0 mph N/A   Clear
2:55 PM 84.0 °F 44.6 °F 25% 30.00 in 10.0 mi SW 13.8 mph 23.0 mph N/A   Clear
3:15 PM 83.5 °F 44.6 °F 25% 29.99 in 10.0 mi SW 16.1 mph 21.9 mph N/A   Clear
3:35 PM 83.7 °F 45.3 °F 26% 29.99 in 10.0 mi SW 12.7 mph - N/A   Clear
3:55 PM 83.3 °F 45.3 °F 26% 29.98 in 10.0 mi SW 13.8 mph - N/A   Clear
4:15 PM 85.1 °F 45.9 °F 25% 29.97 in 10.0 mi SW 15.0 mph 20.7 mph N/A   Clear
4:35 PM 85.5 °F 46.2 °F 25% 29.97 in 10.0 mi SW 13.8 mph 19.6 mph N/A   Clear
4:55 PM 85.3 °F 46.2 °F 26% 29.98 in 10.0 mi SW 15.0 mph - N/A   Clear
5:15 PM 84.4 °F 46.0 °F 26% 29.98 in 10.0 mi SW 10.4 mph 19.6 mph N/A   Clear
5:35 PM 84.2 °F 45.7 °F 26% 29.97 in 10.0 mi SW 10.4 mph 17.3 mph N/A   Clear
5:55 PM 82.8 °F 45.7 °F 27% 29.97 in 10.0 mi SSW 12.7 mph 16.1 mph N/A   Clear
6:15 PM 81.3 °F 45.7 °F 28% 29.98 in 10.0 mi SSW 9.2 mph - N/A   Clear
6:35 PM 79.7 °F 45.5 °F 30% 29.98 in 10.0 mi SSW 8.1 mph - N/A   Clear
6:55 PM 78.8 °F 46.2 °F 32% 29.98 in 10.0 mi South 5.8 mph - N/A   Clear
7:15 PM 77.5 °F 46.8 °F 34% 29.98 in 10.0 mi South 5.8 mph - N/A   Clear
7:35 PM 74.8 °F 46.9 °F 37% 29.99 in 10.0 mi South 4.6 mph - N/A   Clear
7:55 PM 71.2 °F 46.9 °F 42% 29.99 in 10.0 mi SSW 4.6 mph - N/A   Clear
8:15 PM 70.7 °F 46.2 °F 42% 29.99 in 10.0 mi SSW 6.9 mph - N/A   Clear
8:35 PM 71.4 °F 46.0 °F 40% 30.00 in 10.0 mi SW 6.9 mph - N/A   Clear
8:55 PM 70.0 °F 46.4 °F 43% 30.00 in 10.0 mi SSW 5.8 mph - N/A   Clear
9:15 PM 68.0 °F 46.6 °F 46% 30.00 in 10.0 mi SW 4.6 mph - N/A   Clear
9:35 PM 68.0 °F 46.4 °F 46% 30.00 in 10.0 mi SW 4.6 mph - N/A   Clear
9:55 PM 68.9 °F 46.6 °F 45% 30.01 in 10.0 mi SW 5.8 mph - N/A   Clear
10:15 PM 69.6 °F 46.8 °F 44% 30.01 in 10.0 mi Calm Calm - N/A   Clear
10:35 PM 68.5 °F 46.9 °F 46% 30.01 in 10.0 mi Calm Calm - N/A   Clear
10:55 PM 65.5 °F 47.5 °F 52% 30.02 in 10.0 mi SW 4.6 mph - N/A   Clear
11:15 PM 64.0 °F 47.7 °F 55% 30.03 in 10.0 mi SW 3.5 mph - N/A   Clear
11:35 PM 63.5 °F 47.5 °F 56% 30.02 in 10.0 mi WSW 5.8 mph - N/A   Clear
11:55 PM 66.9 °F 46.6 °F 48% 30.02 in 10.0 mi SSW 9.2 mph - N/A   Clear